Hebbronville, TX

3:41 PM CDT on May 25, 2017 (GMT -0500)
Hogg County

Weather History for KHBV - February, 2013

Change the Weather History Date:

Sunday, February 17, 2013

  Actual Average (KALI) Record (KALI)
Temperature  
Mean Temperature 56 °F -  
Max Temperature 71 °F 71 °F 88 °F (2014)
Min Temperature 42 °F 49 °F 33 °F (1997)
Degree Days  
Heating Degree Days 8    
Growing Degree Days 6 (Base 50)    
Moisture  
Dew Point 41 °F    
Average Humidity 54    
Maximum Humidity 75    
Minimum Humidity 38    
Precipitation  
Precipitation 0.00 in - - ()
Sea Level Pressure  
Sea Level Pressure 30.12 in    
Wind  
Wind Speed 10 mph (SSE)    
Max Wind Speed 23 mph    
Max Gust Speed 34 mph    
Visibility 10 miles    
Events      
Averages and records for this station are not official NWS values.
T = Trace of Precipitation, MM = Missing Value Source: NWS Daily Summary

Daily Weather History Graph

Daily Weather History Graph

Search for Another Location

Airport or City:

Trip Planner

Search our weather history database for the weather conditions in past years. The results will help you decide how hot, cold, wet, or windy it might be!

Date:

Astronomy

Feb. 17, 2013 Rise Set
Actual Time 7:09 AM CST 6:28 PM CST
Civil Twilight 6:46 AM CST 6:52 PM CST
Nautical Twilight 6:18 AM CST 7:19 PM CST
Astronomical Twilight 5:51 AM CST 7:46 PM CST
Moon 11:46 AM CST (2/17) 12:44 AM CST (2/17)
Length of Visible Light 12h 05m
Length of Day
11h 18m
Waxing Crescent, 49% of the Moon is Illuminated
Feb 17
Waxing Crescent
Feb 17
First Quarter
Feb 25
Full
Mar 4
Last Quarter
Mar 11
New

Hourly Weather History & Observations

Time (CST) Temp. Windchill Dew Point Humidity Pressure Visibility Wind Dir Wind Speed Gust Speed Precip Events Conditions
12:15 AM 44.8 °F 42.4 °F 25.3 °F 47% 30.28 in 10.0 mi South 4.6 mph - N/A   Clear
12:35 AM 43.7 °F 41.1 °F 25.3 °F 48% 30.27 in 10.0 mi South 4.6 mph - N/A   Clear
12:55 AM 43.5 °F 39.4 °F 26.1 °F 50% 30.26 in 10.0 mi South 6.9 mph - N/A   Clear
1:15 AM 43.5 °F 39.4 °F 27.5 °F 53% 30.26 in 10.0 mi SSE 6.9 mph - N/A   Clear
1:35 AM 44.6 °F 41.4 °F 29.3 °F 55% 30.26 in 10.0 mi SSE 5.8 mph - N/A   Clear
1:55 AM 44.6 °F 42.2 °F 30.0 °F 57% 30.25 in 10.0 mi South 4.6 mph - N/A   Clear
2:15 AM 43.5 °F 40.1 °F 30.0 °F 59% 30.25 in 10.0 mi South 5.8 mph - N/A   Clear
2:35 AM 43.7 °F 40.3 °F 30.7 °F 60% 30.24 in 10.0 mi South 5.8 mph - N/A   Clear
2:55 AM 44.4 °F 41.2 °F 31.6 °F 61% 30.23 in 10.0 mi South 5.8 mph - N/A   Clear
3:15 AM 45.3 °F 43.0 °F 32.7 °F 61% 30.22 in 10.0 mi South 4.6 mph - N/A   Clear
3:35 AM 45.5 °F 43.2 °F 33.4 °F 63% 30.22 in 10.0 mi South 4.6 mph - N/A   Clear
3:55 AM 45.1 °F 43.7 °F 33.6 °F 64% 30.22 in 10.0 mi South 3.5 mph - N/A   Clear
4:15 AM 44.8 °F 42.4 °F 34.0 °F 66% 30.21 in 10.0 mi South 4.6 mph - N/A   Clear
4:35 AM 44.6 °F 42.2 °F 34.0 °F 66% 30.21 in 10.0 mi SSE 4.6 mph - N/A   Clear
4:55 AM 43.9 °F 40.5 °F 34.0 °F 68% 30.20 in 10.0 mi South 5.8 mph - N/A   Clear
5:15 AM 43.5 °F 40.9 °F 34.0 °F 69% 30.20 in 10.0 mi South 4.6 mph - N/A   Clear
5:35 AM 43.5 °F 40.9 °F 34.3 °F 70% 30.19 in 10.0 mi South 4.6 mph - N/A   Clear
5:55 AM 44.1 °F 41.5 °F 34.9 °F 70% 30.20 in 10.0 mi South 4.6 mph - N/A   Clear
6:15 AM 44.1 °F 42.5 °F 34.9 °F 70% 30.20 in 10.0 mi South 3.5 mph - N/A   Clear
6:35 AM 43.9 °F 42.3 °F 34.9 °F 71% 30.20 in 10.0 mi South 3.5 mph - N/A   Clear
6:55 AM 43.7 °F 42.1 °F 35.1 °F 72% 30.20 in 10.0 mi South 3.5 mph - N/A   Clear
7:15 AM 42.8 °F 40.1 °F 34.7 °F 73% 30.21 in 10.0 mi South 4.6 mph - N/A   Clear
7:35 AM 42.3 °F 40.5 °F 34.9 °F 75% 30.21 in 10.0 mi South 3.5 mph - N/A   Clear
7:55 AM 43.7 °F 42.1 °F 35.4 °F 73% 30.21 in 10.0 mi South 3.5 mph - N/A   Clear
8:15 AM 46.8 °F - 36.5 °F 67% 30.21 in 10.0 mi SSE 6.9 mph - N/A   Clear
8:35 AM 50.5 °F - 38.1 °F 62% 30.21 in 10.0 mi SSE 9.2 mph - N/A   Clear
8:55 AM 54.1 °F - 39.4 °F 57% 30.21 in 10.0 mi SSE 9.2 mph - N/A   Clear
9:15 AM 57.2 °F - 40.1 °F 53% 30.22 in 10.0 mi SSE 13.8 mph 18.4 mph N/A   Clear
9:35 AM 59.2 °F - 40.5 °F 50% 30.21 in 10.0 mi SE 13.8 mph 18.4 mph N/A   Clear
9:55 AM 60.6 °F - 40.8 °F 48% 30.21 in 10.0 mi SE 18.4 mph - N/A   Scattered Clouds
10:15 AM 61.3 °F - 41.2 °F 48% 30.21 in 10.0 mi SSE 11.5 mph - N/A   Mostly Cloudy
10:35 AM 61.5 °F - 41.5 °F 48% 30.21 in 10.0 mi SSE 15.0 mph 21.9 mph N/A   Overcast
10:55 AM 62.1 °F - 41.7 °F 47% 30.19 in 10.0 mi SE 16.1 mph 20.7 mph N/A   Overcast
11:15 AM 64.4 °F - 41.4 °F 43% 30.18 in 10.0 mi SE 18.4 mph 24.2 mph N/A   Mostly Cloudy
11:35 AM 67.3 °F - 41.4 °F 39% 30.17 in 10.0 mi SE 20.7 mph 28.8 mph N/A   Scattered Clouds
11:55 AM 66.9 °F - 41.9 °F 40% 30.15 in 10.0 mi SSE 18.4 mph 24.2 mph N/A   Mostly Cloudy
12:15 PM 67.3 °F - 42.6 °F 41% 30.14 in 7.0 mi SSE 20.7 mph 28.8 mph N/A   Overcast
12:55 PM 68.0 °F - 43.0 °F 40% 30.11 in 10.0 mi SE 20.7 mph 26.5 mph N/A   Overcast
1:15 PM 68.4 °F - 43.2 °F 40% 30.10 in 10.0 mi SSE 18.4 mph 23.0 mph N/A   Overcast
1:35 PM 68.7 °F - 43.7 °F 40% 30.08 in 10.0 mi SSE 19.6 mph 25.3 mph N/A   Overcast
1:55 PM 69.4 °F - 43.7 °F 39% 30.07 in 10.0 mi SSE 16.1 mph 24.2 mph N/A   Overcast
2:15 PM 69.8 °F - 43.7 °F 39% 30.06 in 10.0 mi SE 16.1 mph 26.5 mph N/A   Overcast
2:35 PM 70.0 °F - 43.7 °F 39% 30.04 in 10.0 mi SE 20.7 mph 25.3 mph N/A   Overcast
2:55 PM 70.3 °F - 44.1 °F 39% 30.03 in 10.0 mi SE 20.7 mph 26.5 mph N/A   Overcast
3:15 PM 71.1 °F - 44.1 °F 38% 30.03 in 10.0 mi SSE 20.7 mph 26.5 mph N/A   Overcast
3:35 PM 71.1 °F - 44.4 °F 38% 30.01 in 10.0 mi SE 19.6 mph 29.9 mph N/A   Overcast
3:55 PM 70.7 °F - 44.6 °F 39% 30.01 in 10.0 mi SE 23.0 mph 34.5 mph N/A   Overcast
4:15 PM 70.7 °F - 45.1 °F 40% 30.00 in 10.0 mi SE 18.4 mph 27.6 mph N/A   Overcast
4:35 PM 71.6 °F - 45.0 °F 38% 30.00 in 10.0 mi SE 21.9 mph 27.6 mph N/A   Mostly Cloudy
4:55 PM 70.5 °F - 45.5 °F 41% 30.00 in 7.0 mi SE 20.7 mph 28.8 mph N/A   Scattered Clouds
5:15 PM 69.3 °F - 46.0 °F 43% 30.00 in 10.0 mi SE 19.6 mph 28.8 mph N/A   Scattered Clouds
5:35 PM 69.1 °F - 46.4 °F 44% 30.00 in 10.0 mi SE 21.9 mph 29.9 mph N/A   Scattered Clouds
5:55 PM 68.5 °F - 46.8 °F 46% 29.99 in 10.0 mi SE 23.0 mph 28.8 mph N/A   Scattered Clouds
6:15 PM 67.5 °F - 47.3 °F 48% 29.99 in 10.0 mi SE 19.6 mph 27.6 mph N/A   Scattered Clouds
6:35 PM 66.9 °F - 47.5 °F 50% 29.99 in 10.0 mi SE 20.7 mph 27.6 mph N/A   Mostly Cloudy
6:55 PM 66.0 °F - 47.8 °F 52% 30.00 in 10.0 mi SE 16.1 mph 21.9 mph N/A   Mostly Cloudy
7:15 PM 65.5 °F - 48.0 °F 53% 30.00 in 10.0 mi ESE 15.0 mph 20.7 mph N/A   Overcast
7:35 PM 65.3 °F - 48.4 °F 54% 30.00 in 10.0 mi SE 17.3 mph 24.2 mph N/A   Mostly Cloudy
7:55 PM 65.3 °F - 49.1 °F 56% 30.00 in 10.0 mi SE 16.1 mph 24.2 mph N/A   Overcast
8:15 PM 64.9 °F - 49.3 °F 57% 30.00 in 10.0 mi SE 18.4 mph 23.0 mph N/A   Overcast
8:35 PM 64.9 °F - 49.6 °F 58% 30.00 in 10.0 mi SE 16.1 mph 26.5 mph N/A   Overcast
8:55 PM 64.9 °F - 50.0 °F 58% 30.01 in 10.0 mi SE 15.0 mph 23.0 mph N/A   Overcast
9:15 PM 64.9 °F - 50.5 °F 60% 30.00 in 10.0 mi SE 20.7 mph 26.5 mph N/A   Overcast
9:35 PM 64.8 °F - 51.1 °F 61% 30.01 in 10.0 mi SE 20.7 mph 25.3 mph N/A   Overcast
9:55 PM 64.8 °F - 51.3 °F 62% 30.01 in 10.0 mi SE 17.3 mph 28.8 mph N/A   Overcast
10:15 PM 64.6 °F - 51.6 °F 63% 30.00 in 10.0 mi SE 19.6 mph 24.2 mph N/A   Overcast
10:35 PM 64.6 °F - 52.0 °F 64% 30.00 in 10.0 mi SSE 20.7 mph 27.6 mph N/A   Overcast
10:55 PM 64.8 °F - 52.5 °F 64% 30.00 in 10.0 mi SSE 21.9 mph 27.6 mph N/A   Overcast
11:15 PM 64.8 °F - 52.7 °F 65% 29.99 in 10.0 mi SSE 16.1 mph 26.5 mph N/A   Overcast
11:35 PM 64.8 °F - 53.1 °F 66% 29.99 in 10.0 mi SSE 17.3 mph 27.6 mph N/A   Overcast
11:55 PM 64.8 °F - 53.4 °F 67% 29.99 in 10.0 mi SSE 15.0 mph 27.6 mph N/A   Overcast